Location: Aciu?a
(46.2833°N, 22.4500°E)
Time: 05:36:59
(UTC+00:00)

Cosmos 1825 Rocket - Pass Details

Date: 25 October 2021
Orbit: 604 x 631 km, 82.5° (Epoch: 04 December)

Event Time Altitude Azimuth Distance (km) Brightness Sun altitude
Rises 16:46:57 0° 359° (N) 2,875 7.0 -14.5°
Reaches altitude 10° 16:49:24 10° 10° (N) 1,964 6.0 -14.9°
Maximum altitude 16:53:15 31° 73° (ENE) 1,075 4.2 -15.6°
Enters shadow 16:54:09 28° 97° (E) 1,140 4.3 -15.8°
